Regional Weather Roundup
Issued by NWS

Home | Current Version | Previous Version | Text Only | Print | Product List | Glossary On
Versions: 1 2 3 4 5 6 7 8 9 10 11 12 13 14 15 16 17 18 19 20 21 22 23 24 25 26 27 28 29 30 31 32 33 34 35 36 37 38 39 40 41 42 43 44 45 46 47 48 49 50
000
ASUS43 KLMK 201910
RWRKY
KENTUCKY REGIONAL WEATHER ROUNDUP
NATIONAL WEATHER SERVICE LOUISVILLE KY
200 PM EST SAT DEC 20 2014

NOTE "FAIR" INDICATES FEW OR NO CLOUDS BELOW 12,000 FEET
WITH NO SIGNIFICANT WEATHER AND/OR OBSTRUCTIONS TO VISIBILITY.

KYZ001>023-026-027-061>063-070>075-202000-
WESTERN AND SOUTH CENTRAL KENTUCKY

CITY           SKY/WX    TMP DP  RH WIND       PRES   REMARKS
PADUCAH        PTSUNNY   43  28  55 CALM      30.25F
HENDERSON      CLOUDY    36  25  64 CALM      30.27F
OWENSBORO      CLOUDY    37  27  68 NE7       30.28F WCI  31
HOPKINSVILLE   CLOUDY    38  27  63 VRB1      30.25F
BOWLING GREEN  MOSUNNY   42  26  53 CALM      30.25F
GLASGOW        CLOUDY    41  27  56 CALM      30.22F
$$

KYZ024-025-028>034-038-045-046-053-202000-
NORTH CENTRAL KENTUCKY

CITY           SKY/WX    TMP DP  RH WIND       PRES   REMARKS
LOUISVILLE/SDF PTSUNNY   37  26  64 SW3       30.26S
LOUISVILLE/LOU CLOUDY    36  27  69 NW7       30.27F WCI  30
FORT KNOX      CLOUDY    37  26  64 VRB3      30.23F
$$

KYZ035>037-039>044-047>052-055>060-089>105-202000-
NORTHEAST KENTUCKY

CITY           SKY/WX    TMP DP  RH WIND       PRES   REMARKS
LEXINGTON      CLOUDY    35  26  69 CALM      30.23F
COVINGTON      CLOUDY    32  24  72 N3        30.25S
FRANKFORT      CLOUDY    34  25  69 CALM      30.23F
$$

KYZ054-064>069-076>088-106>120-202000-
SOUTHEAST KENTUCKY

CITY           SKY/WX    TMP DP  RH WIND       PRES   REMARKS
JACKSON        CLOUDY    38  25  59 NW3       30.19F
LONDON         CLOUDY    40  26  57 CALM      30.20F
SOMERSET       CLOUDY    37  27  65 NW3       30.23F
MIDDLESBORO    CLOUDY    43  34  69 CALM      30.18F
MONTICELLO     CLOUDY    41  29  62 CALM      30.24F
$$




USA.gov is the U.S. government's official web portal to all federal, state and local government web resources and services.